Location: LDNL
(36.4545°S, 141.6685°E)
Time: 10:51:17
(UTC+10:00)

Tiros 1 despin weight - Pass Details

Date: 11 August 2022
Orbit: 590 x 639 km, 48.2° (Epoch: 23 September)

Event Time Altitude Azimuth Distance (km) Brightness Sun altitude
Rises 00:52:08 0° 303° (WNW) 2,893 - -68.8°
Reaches altitude 10° 00:54:25 10° 301° (WNW) 2,000 - -68.7°
Maximum altitude 00:59:02 78° 215° (SW) 655 - -68.5°
Drops below altitude 10° 01:03:46 10° 127° (SE) 2,042 - -68.3°
Sets 01:06:08 0° 126° (SE) 2,960 - -68.1°
